sat.trackr.live / text

‹ back to catalog

STARLINK-11119 [DTC]

NORAD 60121 · 2024-118J

PAYLOAD ACTIVE UNKNOWN

§ Identity

Operator
Country
US
Launch date
2024-06-24
Launch site
AFWTR
Launch vehicle
Mass (kg)
RCS (m²)

Purposes: comms

External: N2YO · Heavens-Above · Gunter

§ Orbital elements

Epoch: 2026-05-25T04:48:45.840384Z

Period
91.74 min
Inclination
53.1593°
Eccentricity
0.0001169
Mean motion
15.69714672 rev/d
Perigee alt
358.9 km
Apogee alt
360.5 km
Semi-major
6,737.9 km
B*
2.9501e-5
RAAN
203.8361°
Arg perigee
70.7029°
Mean anomaly
289.4116°
Rev number
11,001

§ Raw data

STARLINK-11119 [DTC]1 60121U 24118J   26145.20053056  .00002987  00000+0  29501-4 0  99912 60121  53.1593 203.8361 0001169  70.7029 289.4116 15.69714672110015

JSON: /api/v1/satellites/60121 · /tle

For live sub-satellite position, see the globe view (requires WebGL).

§ Visibility from observer

Set your observer location to see the next 7 days of passes ≥ 10°. The values pass through the URL so the page stays shareable.

No JS? Fill the form by hand. The geolocation button needs JavaScript.